[[[{"header":{"parameterUnit":"kt","parameterCategory":2,"dx":1,"dy":1,"la1":30.253999710083008,"la2":30.299108505249023,"lo1":-89.0895004272461,"lo2":-89.04439544677734,"nx":28,"ny":28,"refTime":"2022-09-21T21:00:00:Z","depth":0,"parameterNumber":1,"parameterNumberName":"U-component_of_WINDS"},"data":[1.5375,1.5562,1.5604,1.5838,1.5917,1.6085,1.6159,1.6261,1.6353,1.6561,1.6689,1.6755,1.6868,1.7035,1.7178,1.7206,1.7263,1.7295,1.7322,1.7133,1.711,1.7088,1.7045,1.7307,1.7308,1.751,1.7512,1.7513,1.5227,1.5305,1.5442,1.5604,1.5722,1.5715,1.5845,1.5945,1.6097,1.6213,1.6343,1.6532,1.6688,1.6794,1.6953,1.7044,1.7052,1.7084,1.7078,1.7096,1.6896,1.6849,1.7074,1.7074,1.7074,1.7074,1.7074,1.7074,1.4969,1.5079,1.5202,1.5352,1.5446,1.5555,1.567,1.5747,1.5884,1.6053,1.6082,1.6257,1.6385,1.6602,1.6687,1.6827,1.6801,1.6852,1.6864,1.6876,1.6881,1.6577,1.6857,1.6857,1.6856,1.6856,1.6855,0,1.4793,1.4821,1.4956,1.5103,1.5216,1.5336,1.5454,1.5527,1.5608,1.5719,1.5883,1.5987,1.6192,1.6355,1.6516,1.6596,1.6606,1.6613,1.6648,1.6635,1.66,1.6619,1.6289,1.6606,1.6604,1.6602,1.6601,1.66,1.4534,1.466,1.4811,1.49,1.4975,1.512,1.5215,1.5277,1.5377,1.5534,1.5632,1.5795,1.5929,1.619,1.6286,1.6442,1.6448,1.6563,1.6473,1.6453,1.6449,1.6441,1.6453,1.658,1.6583,1.6585,1.6586,0,1.4384,1.4456,1.4665,1.4805,1.4844,1.4973,1.5094,1.5211,1.5275,1.5445,1.5488,1.5592,1.5755,1.5833,1.6038,1.6074,1.6291,1.6295,1.6245,1.625,1.636,1.6348,1.6707,1.6756,1.6486,1.6488,1.649,0,1.4192,1.4356,1.4453,1.4571,1.4755,1.4813,1.4995,1.5068,1.518,1.5314,1.5335,1.5462,1.5542,1.568,1.5734,1.5926,1.5966,1.6005,1.6017,1.6003,1.5998,1.6059,1.6046,1.6042,1.604,1.6038,1.6037,0,1.3949,1.4195,1.4387,1.4455,1.4623,1.4712,1.4787,1.4913,1.5008,1.5145,1.5207,1.5364,1.545,1.5571,1.5638,1.5573,1.5876,1.5801,1.5916,1.5915,1.598,1.5975,1.6272,1.6035,1.6034,1.6033,1.6033,0,1.3805,1.3937,1.4206,1.4345,1.4408,1.4537,1.4691,1.4819,1.4952,1.4992,1.5101,1.5126,1.5301,1.5221,1.5463,1.5359,1.5443,1.5497,1.5507,1.5528,1.5436,1.5592,1.5867,1.5898,1.5546,1.5542,1.5538,0,1.3506,1.3797,1.3848,1.4104,1.4249,1.426,1.4405,1.4521,1.4588,1.4723,1.4798,1.4954,1.4911,1.4971,1.5081,1.5166,1.5301,1.515,1.5349,1.5355,1.531,1.5564,1.5585,1.5797,1.5487,1.5493,1.5496,0,1.3284,1.3485,1.3527,1.3607,1.3768,1.3892,1.4058,1.4223,1.431,1.444,1.4582,1.4805,1.478,1.4881,1.4919,1.503,1.5212,1.4991,1.4995,1.5027,1.5469,1.5487,1.5523,1.5213,1.522,1.5225,1.5456,0,1.3048,1.3204,1.3321,1.3499,1.3606,1.3771,1.3851,1.3953,1.3977,1.4044,1.4256,1.4377,1.4551,1.4613,1.464,1.4868,1.4843,1.4817,1.4746,1.4912,1.499,1.5022,1.4621,1.462,1.4618,1.4617,0,0,1.2744,1.2969,1.3022,1.3184,1.3277,1.3289,1.3459,1.3553,1.3743,1.3809,1.3768,1.41,1.4202,1.4453,1.451,1.4582,1.4631,1.4571,1.4832,1.4856,1.4878,1.496,1.4992,1.4615,1.4614,1.4614,1.4614,0,1.2674,1.2769,1.2935,1.3033,1.318,1.3242,1.3282,1.3432,1.3483,1.3692,1.3702,1.3841,1.4107,1.4212,1.4301,1.4542,1.4544,1.4589,1.469,1.4816,1.4841,1.4864,1.4949,1.4979,1.461,1.4611,1.4611,0,1.2469,1.2576,1.2664,1.2877,1.2975,1.3126,1.3068,1.3232,1.3346,1.3357,1.3564,1.3644,1.3793,1.402,1.4125,1.4093,1.446,1.4361,1.4372,1.4386,1.4513,1.4543,1.457,1.4214,1.4212,1.4211,0,0,1.2398,1.2543,1.268,1.2868,1.2928,1.3024,1.3114,1.3147,1.3277,1.333,1.3433,1.3562,1.3717,1.3819,1.3969,1.4207,1.4244,1.4309,1.4327,1.4342,1.4364,1.4495,1.4525,1.4204,1.4204,1.4204,0,0,1.2366,1.2529,1.2529,1.2757,1.2878,1.3029,1.3142,1.3147,1.329,1.328,1.3349,1.3387,1.3601,1.3681,1.3582,1.3946,1.3874,1.3899,1.3886,1.3911,1.393,1.3907,1.3544,0,0,0,0,0,1.2334,1.2508,1.2505,1.2556,1.2828,1.3028,1.3064,1.3122,1.3067,1.3156,1.3242,1.3239,1.3641,1.3555,1.3606,1.3717,1.4119,1.4134,1.4148,1.4188,1.4213,1.4234,0,0,0,0,0,0,1.2355,1.2415,1.2501,1.2657,1.2719,1.3023,1.2943,1.2964,1.3059,1.3055,1.3222,1.3245,1.3301,1.3533,1.3578,1.3682,1.3529,1.4125,1.4138,1.4149,1.4196,1.4217,1.4234,0,0,0,0,0,1.2371,1.242,1.2841,1.2656,1.2709,1.2827,1.2937,1.2954,1.3029,1.3164,1.3186,1.3064,1.3302,1.3345,1.356,1.366,1.3498,1.3515,1.4133,1.4143,1.4152,1.4206,0,0,0,0,0,0,1.2383,1.2439,1.2853,1.2872,1.2594,1.2811,1.2847,1.2945,1.3134,1.3157,1.3008,1.3003,1.3305,1.3338,1.337,1.3648,1.3473,1.349,1.3501,1.4141,1.4149,1.4156,0,0,0,0,0,0,1.2412,1.2454,1.2863,1.2782,1.2792,1.2796,1.2828,1.3021,1.3136,1.2968,1.2969,1.3004,1.3258,1.3334,1.3359,1.3658,1.3454,1.347,1.3481,1.3488,1.4147,1.4153,0,0,0,0,0,0,1.2431,1.2467,1.2777,1.2785,1.2793,1.3008,1.2969,1.3246,1.3061,1.2959,1.3046,1.304,1.3255,1.3281,1.3351,1.364,1.3654,1.3454,1.3465,1.3473,1.3478,0,0,0,0,0,0,0,1.2446,1.2191,1.2742,1.2788,1.2795,1.3044,1.3049,1.3055,1.3059,1.3054,1.3048,1.3042,1.3361,1.3379,1.3397,1.3625,0,0,1.3453,1.346,0,0,0,0,0,0,0,0,1.2178,1.2188,1.2742,1.2746,1.275,1.3045,1.3049,1.3053,1.3058,1.3054,1.3049,1.3045,1.3366,1.338,1.3395,0,0,0,0,0,0,0,0,0,0,0,0,0,0,0,1.2743,1.2746,0,1.3046,1.3049,1.3053,1.3058,1.3054,1.305,1.3046,1.337,1.3382,1.3394,0,0,0,0,0,0,0,0,0,0,0,0,0,0,0,0,0,0,0,0,0,0,0,0,0,0,0,0,0,0,0,0,0,0,0,0,0,0,0,0,0,0,0,0,0,0,0,0,0,0,0,0,0,0,0,0,0,0,0,0,0,0,0,0,0,0,0,0,0]}],[{"header":{"parameterUnit":"kt","parameterCategory":2,"dx":1,"dy":1,"la1":30.253999710083008,"la2":30.299108505249023,"lo1":-89.0895004272461,"lo2":-89.04439544677734,"nx":28,"ny":28,"refTime":"2022-09-21T21:00:00:Z","depth":0,"parameterNumber":2,"parameterNumberName":"V-component_of_WINDS"},"data":[3.9974,4.0051,4.0043,4.0125,4.0134,4.0187,4.0205,4.0226,4.0242,4.0305,4.034,4.0342,4.0355,4.0394,4.0431,4.0431,4.0444,4.0472,4.0466,4.0348,4.0331,4.0314,4.0293,4.0477,4.0478,4.0587,4.0588,4.0588,3.9873,3.9881,3.9926,3.9964,4.0,3.9967,3.9995,4.0026,4.0077,4.0099,4.0136,4.0192,4.0236,4.0242,4.0282,4.0315,4.0301,4.0325,4.0319,4.032,4.0195,4.0173,4.0335,4.0335,4.0335,4.0335,4.0335,4.0335,3.9685,3.9733,3.9753,3.9802,3.982,3.9846,3.989,3.9893,3.9937,3.9982,3.997,4.0027,4.0049,4.0099,4.0116,4.0158,4.0131,4.0156,4.0161,4.0165,4.0167,3.9994,4.0167,4.0167,4.0166,4.0166,4.0166,0,3.9544,3.9535,3.9581,3.9622,3.9658,3.9692,3.9722,3.975,3.9734,3.9773,3.9826,3.9856,3.9915,3.9964,4.0004,4.0017,3.9986,3.9987,4.0002,4.0003,3.9996,3.9991,3.9778,3.9981,3.9979,3.9978,3.9977,3.9977,3.9345,3.9408,3.943,3.9462,3.9478,3.9533,3.9563,3.9547,3.958,3.9615,3.9659,3.971,3.9749,3.9838,3.9842,3.9888,3.9872,3.9948,3.9879,3.9876,3.9862,3.9856,3.9857,3.996,3.9962,3.9964,3.9965,0,3.9232,3.9227,3.9322,3.9341,3.9348,3.9412,3.9427,3.9477,3.9478,3.9545,3.956,3.9561,3.9615,3.9609,3.9673,3.9666,3.9762,3.9751,3.975,3.9744,3.9805,3.9796,4.0021,4.0046,3.9864,3.9866,3.9868,0,3.9057,3.9142,3.9127,3.9184,3.9274,3.9257,3.9346,3.9356,3.9379,3.9432,3.94,3.9451,3.9437,3.9485,3.9478,3.9557,3.9572,3.9569,3.9565,3.9568,3.9567,3.9581,3.9569,3.9565,3.9564,3.9563,3.9562,0,3.8874,3.8973,3.9065,3.9086,3.9118,3.9162,3.9177,3.9205,3.9238,3.928,3.9299,3.9351,3.9378,3.9416,3.9405,3.9357,3.9505,3.9438,3.9501,3.9501,3.9531,3.9528,3.9734,3.9561,3.956,3.956,3.956,0,3.8732,3.8777,3.8917,3.8939,3.8966,3.9031,3.9078,3.9132,3.9164,3.9164,3.9198,3.9175,3.9252,3.9182,3.9284,3.9223,3.925,3.9257,3.9262,3.9263,3.9184,3.929,3.9494,3.9511,3.9268,3.9265,3.9263,0,3.8517,3.8661,3.8648,3.8783,3.8847,3.8802,3.8873,3.8905,3.8911,3.8964,3.8971,3.9034,3.8984,3.9002,3.9054,3.9062,3.9142,3.9053,3.912,3.9123,3.9103,3.9293,3.932,3.9451,3.9233,3.9236,3.9238,0,3.8351,3.8395,3.8422,3.8442,3.8487,3.8544,3.8628,3.8688,3.8723,3.8769,3.8832,3.8929,3.8889,3.8924,3.8914,3.8968,3.9087,3.8921,3.8921,3.8943,3.9221,3.9245,3.9267,3.9067,3.9071,3.9074,3.9214,0,3.8117,3.8194,3.8267,3.8326,3.8371,3.8461,3.8458,3.8505,3.8488,3.8493,3.8594,3.8627,3.869,3.872,3.8708,3.8838,3.8813,3.8775,3.8704,3.8832,3.8877,3.8896,3.8636,3.8633,3.8632,3.863,0,0,3.7908,3.8019,3.8008,3.8091,3.8127,3.8084,3.8178,3.821,3.8276,3.83,3.8261,3.84,3.8429,3.8552,3.8592,3.8623,3.8642,3.8601,3.8773,3.8789,3.8804,3.8852,3.8873,3.8627,3.8627,3.8626,3.8626,0,3.7821,3.7857,3.7954,3.7985,3.8032,3.8036,3.8059,3.8099,3.8107,3.8213,3.8174,3.8236,3.8355,3.8385,3.8416,3.8587,3.8553,3.8608,3.8695,3.8756,3.8774,3.879,3.8842,3.8862,3.8621,3.8622,3.8622,0,3.765,3.768,3.773,3.7819,3.7851,3.7924,3.7848,3.7933,3.7985,3.7937,3.8041,3.806,3.8106,3.8228,3.8283,3.8249,3.847,3.8406,3.8417,3.8421,3.848,3.8502,3.8521,3.8261,3.826,3.8259,0,0,3.7575,3.7651,3.7681,3.7801,3.7823,3.7832,3.7874,3.7862,3.7906,3.7924,3.7948,3.799,3.8056,3.8101,3.8165,3.8302,3.8306,3.8362,3.8379,3.8392,3.8404,3.8466,3.8488,3.8254,3.8254,3.8254,0,0,3.754,3.7579,3.7556,3.7696,3.7739,3.7777,3.7848,3.7821,3.788,3.7869,3.7856,3.7867,3.7982,3.8004,3.7939,3.8138,3.8069,3.8085,3.812,3.8141,3.8158,3.8148,3.7866,0,0,0,0,0,3.7452,3.7573,3.7552,3.7576,3.7693,3.7788,3.7803,3.7795,3.7742,3.7798,3.7812,3.7778,3.7964,3.7906,3.7929,3.8001,3.8192,3.8203,3.8213,3.829,3.8313,3.8332,0,0,0,0,0,0,3.7461,3.749,3.7549,3.7593,3.7619,3.7784,3.7693,3.7694,3.7736,3.7727,3.7776,3.7779,3.7774,3.7894,3.7915,3.7983,3.7859,3.8196,3.8206,3.8214,3.8298,3.8317,3.8332,0,0,0,0,0,3.7468,3.7492,3.7682,3.7591,3.7613,3.7631,3.7688,3.7688,3.7721,3.7747,3.7749,3.7711,3.7777,3.7794,3.7906,3.7973,3.7844,3.7852,3.8202,3.821,3.8216,3.8307,0,0,0,0,0,0,3.7473,3.7492,3.7686,3.7692,3.7546,3.7622,3.7634,3.7684,3.7737,3.7741,3.768,3.7673,3.778,3.7792,3.7806,3.797,3.7833,3.7841,3.7845,3.8208,3.8214,3.8219,0,0,0,0,0,0,3.7479,3.7498,3.7689,3.7633,3.7632,3.7613,3.7624,3.7721,3.7738,3.7668,3.7663,3.7677,3.7759,3.7792,3.7802,3.7954,3.7823,3.7831,3.7836,3.784,3.8213,3.8217,0,0,0,0,0,0,3.7487,3.7503,3.7631,3.7631,3.763,3.7702,3.7698,3.7818,3.769,3.7666,3.7678,3.7673,3.7761,3.777,3.78,3.7948,3.7953,3.7824,3.7829,3.7833,3.7835,0,0,0,0,0,0,0,3.7493,3.7389,3.7648,3.7629,3.7629,3.7752,3.7754,3.7755,3.7689,3.7684,3.768,3.7675,3.778,3.7788,3.7797,3.7943,0,0,3.7823,3.7827,0,0,0,0,0,0,0,0,3.7382,3.7387,3.7648,3.7649,3.7651,3.7752,3.7754,3.7755,3.7688,3.7684,3.7681,3.7677,3.7782,3.7789,3.7796,0,0,0,0,0,0,0,0,0,0,0,0,0,0,0,3.7648,3.7649,0,3.7752,3.7754,3.7755,3.7688,3.7685,3.7681,3.7679,3.7784,3.779,3.7795,0,0,0,0,0,0,0,0,0,0,0,0,0,0,0,0,0,0,0,0,0,0,0,0,0,0,0,0,0,0,0,0,0,0,0,0,0,0,0,0,0,0,0,0,0,0,0,0,0,0,0,0,0,0,0,0,0,0,0,0,0,0,0,0,0,0,0,0,0]}]]]